• In Portugal
  • List of Countries
  • For 7 days
  • Water Temperature
  • Satellite Maps
  • Weather Map
  • Weather Widgets
  • user-avatar
    Login

    Hourly Weather Katmandu

    Today, 22 October, Sunday

    Time Temperature Precipitation Wind Pressure Humidity
    00:00 +18°C° 0 mm 1 mps 649 mmHg 87%
    01:00 +18°C° 0.3 mm 1 mps 648 mmHg 86%
    02:00 +16°C° 0.3 mm 0 mps 648 mmHg 86%
    03:00 +16°C° 0.3 mm 0 mps 648 mmHg 85%
    04:00 +16°C° 0.4 mm 0 mps 648 mmHg 83%
    05:00 +18°C° 0.4 mm 1 mps 648 mmHg 82%
    06:00 +18°C° 0 mm 1 mps 648 mmHg 82%
    07:00 +19°C° 0.3 mm 1 mps 649 mmHg 78%
    08:00 +21°C° 0.3 mm 1 mps 649 mmHg 75%
    09:00 +23°C° 0.3 mm 1 mps 650 mmHg 71%
    10:00 +24°C° 0.3 mm 1 mps 650 mmHg 69%
    11:00 +24°C° 0.3 mm 2 mps 650 mmHg 66%
    12:00 +25°C° 0 mm 2 mps 650 mmHg 65%
    13:00 +25°C° 0.7 mm 2 mps 650 mmHg 68%
    14:00 +24°C° 0.7 mm 2 mps 650 mmHg 70%
    15:00 +24°C° 0.7 mm 2 mps 649 mmHg 73%
    16:00 +23°C° 0.5 mm 2 mps 649 mmHg 79%
    17:00 +21°C° 0.5 mm 1 mps 649 mmHg 85%
    18:00 +20°C° 0 mm 1 mps 648 mmHg 91%
    19:00 +20°C° 0.2 mm 1 mps 648 mmHg 90%
    20:00 +19°C° 0.2 mm 1 mps 649 mmHg 90%
    21:00 +19°C° 0.2 mm 1 mps 649 mmHg 89%
    22:00 +19°C° 0.4 mm 1 mps 649 mmHg 87%
    23:00 +19°C° 0.4 mm 1 mps 650 mmHg 85%

    Tomorrow, 23 October, Monday

    Time Temperature Precipitation Wind Pressure Humidity
    00:00 +18°C° 0.4 mm 1 mps 650 mmHg 84%
    01:00 +18°C° 0.6 mm 1 mps 650 mmHg 82%
    02:00 +18°C° 0.6 mm 1 mps 650 mmHg 80%
    03:00 +16°C° 0.6 mm 1 mps 649 mmHg 78%
    04:00 +16°C° 0.2 mm 1 mps 650 mmHg 76%
    05:00 +16°C° 0.2 mm 2 mps 650 mmHg 74%
    06:00 +16°C° 0.2 mm 2 mps 650 mmHg 71%
    07:00 +19°C° 0 mm 1 mps 651 mmHg 66%
    08:00 +21°C° 0 mm 1 mps 651 mmHg 60%
    09:00 +23°C° 0 mm 1 mps 652 mmHg 55%
    10:00 +24°C° 0.1 mm 1 mps 652 mmHg 52%
    11:00 +25°C° 0.1 mm 2 mps 652 mmHg 49%
    12:00 +26°C° 0.1 mm 2 mps 652 mmHg 46%
    13:00 +25°C° 0.5 mm 2 mps 652 mmHg 49%
    14:00 +25°C° 0.5 mm 2 mps 651 mmHg 51%
    15:00 +25°C° 0.5 mm 2 mps 651 mmHg 53%
    16:00 +23°C° 0.6 mm 2 mps 650 mmHg 62%
    17:00 +21°C° 0.6 mm 1 mps 650 mmHg 71%
    18:00 +18°C° 0.6 mm 1 mps 649 mmHg 80%
    19:00 +18°C° 0.2 mm 1 mps 650 mmHg 77%
    20:00 +18°C° 0.2 mm 1 mps 650 mmHg 73%
    21:00 +17°C° 0.2 mm 2 mps 651 mmHg 70%
    22:00 +17°C° 0 mm 2 mps 651 mmHg 67%
    23:00 +16°C° 0 mm 2 mps 651 mmHg 63%

    Day after tomorrow, 24 October, Tuesday

    Time Temperature Precipitation Wind Pressure Humidity
    00:00 +16°C° 0 mm 2 mps 651 mmHg 59%
    01:00 +16°C° 0 mm 2 mps 651 mmHg 56%
    02:00 +16°C° 0 mm 2 mps 651 mmHg 52%
    03:00 +15°C° 0 mm 2 mps 651 mmHg 48%
    04:00 +15°C° 0 mm 2 mps 651 mmHg 46%
    05:00 +15°C° 0 mm 2 mps 651 mmHg 43%
    06:00 +15°C° 0 mm 2 mps 651 mmHg 41%
    07:00 +17°C° 0 mm 2 mps 652 mmHg 38%
    08:00 +20°C° 0 mm 1 mps 653 mmHg 35%
    09:00 +22°C° 0 mm 1 mps 654 mmHg 33%
    10:00 +23°C° 0 mm 1 mps 654 mmHg 32%
    11:00 +24°C° 0 mm 2 mps 654 mmHg 32%
    12:00 +25°C° 0 mm 2 mps 654 mmHg 32%
    13:00 +25°C° 0 mm 2 mps 653 mmHg 34%
    14:00 +25°C° 0 mm 2 mps 653 mmHg 36%
    15:00 +24°C° 0 mm 2 mps 652 mmHg 38%
    16:00 +21°C° 0 mm 2 mps 651 mmHg 48%
    17:00 +19°C° 0 mm 1 mps 651 mmHg 58%
    18:00 +16°C° 0 mm 1 mps 650 mmHg 69%
    19:00 +16°C° 0 mm 1 mps 651 mmHg 66%
    20:00 +15°C° 0 mm 1 mps 651 mmHg 64%
    21:00 +15°C° 0 mm 2 mps 652 mmHg 62%
    22:00 +15°C° 0 mm 2 mps 652 mmHg 60%
    23:00 +14°C° 0 mm 2 mps 652 mmHg 57%

    25 October, Wednesday

    Time Temperature Precipitation Wind Pressure Humidity
    00:00 +14°C° 0 mm 2 mps 652 mmHg 55%
    01:00 +14°C° 0 mm 2 mps 652 mmHg 53%
    02:00 +14°C° 0 mm 2 mps 652 mmHg 51%
    03:00 +14°C° 0 mm 2 mps 651 mmHg 49%
    04:00 +13°C° 0 mm 2 mps 652 mmHg 47%
    05:00 +13°C° 0 mm 2 mps 652 mmHg 46%
    06:00 +13°C° 0 mm 2 mps 652 mmHg 44%
    07:00 +16°C° 0 mm 2 mps 653 mmHg 43%
    08:00 +19°C° 0 mm 1 mps 654 mmHg 41%
    09:00 +21°C° 0 mm 1 mps 656 mmHg 39%
    10:00 +22°C° 0 mm 1 mps 656 mmHg 38%
    11:00 +23°C° 0 mm 2 mps 655 mmHg 38%
    12:00 +24°C° 0 mm 2 mps 655 mmHg 38%
    13:00 +24°C° 0 mm 2 mps 655 mmHg 40%
    14:00 +23°C° 0 mm 2 mps 654 mmHg 43%
    15:00 +23°C° 0 mm 2 mps 653 mmHg 46%
    16:00 +21°C° 0 mm 1 mps 653 mmHg 55%
    17:00 +19°C° 0 mm 1 mps 652 mmHg 64%
    18:00 +15°C° 0 mm 0 mps 651 mmHg 73%
    19:00 +15°C° 0 mm 1 mps 652 mmHg 73%
    20:00 +15°C° 0 mm 1 mps 652 mmHg 73%
    21:00 +14°C° 0 mm 1 mps 653 mmHg 73%
    22:00 +14°C° 0 mm 1 mps 652 mmHg 72%
    23:00 +14°C° 0 mm 1 mps 652 mmHg 72%

    26 October, Thursday

    Time Temperature Precipitation Wind Pressure Humidity
    00:00 +14°C° 0 mm 2 mps 652 mmHg 71%
    01:00 +14°C° 0 mm 2 mps 652 mmHg 70%
    02:00 +14°C° 0 mm 2 mps 652 mmHg 69%
    03:00 +14°C° 0 mm 2 mps 652 mmHg 68%
    04:00 +13°C° 0 mm 2 mps 652 mmHg 67%
    05:00 +13°C° 0 mm 2 mps 652 mmHg 66%
    06:00 +13°C° 0 mm 2 mps 652 mmHg 66%
    07:00 +16°C° 0 mm 1 mps 654 mmHg 61%
    08:00 +19°C° 0 mm 1 mps 655 mmHg 57%
    09:00 +22°C° 0 mm 1 mps 656 mmHg 52%
    10:00 +23°C° 0 mm 1 mps 656 mmHg 51%
    11:00 +24°C° 0 mm 2 mps 656 mmHg 49%
    12:00 +24°C° 0 mm 2 mps 655 mmHg 47%
    13:00 +24°C° 0 mm 2 mps 655 mmHg 49%
    14:00 +24°C° 0 mm 2 mps 654 mmHg 51%
    15:00 +24°C° 0 mm 2 mps 653 mmHg 53%
    16:00 +21°C° 0 mm 2 mps 653 mmHg 63%
    17:00 +19°C° 0 mm 1 mps 652 mmHg 73%
    18:00 +16°C° 0 mm 1 mps 652 mmHg 83%
    19:00 +16°C° 0 mm 1 mps 652 mmHg 81%
    20:00 +15°C° 0 mm 1 mps 653 mmHg 80%
    21:00 +15°C° 0 mm 1 mps 653 mmHg 79%
    22:00 +15°C° 0 mm 1 mps 653 mmHg 76%
    23:00 +15°C° 0 mm 1 mps 653 mmHg 74%

    27 October, Friday

    Time Temperature Precipitation Wind Pressure Humidity
    00:00 +15°C° 0 mm 1 mps 653 mmHg 72%
    01:00 +15°C° 0 mm 2 mps 652 mmHg 69%
    02:00 +14°C° 0 mm 2 mps 652 mmHg 67%
    03:00 +14°C° 0 mm 2 mps 651 mmHg 64%
    04:00 +14°C° 0 mm 2 mps 652 mmHg 62%
    05:00 +14°C° 0 mm 2 mps 652 mmHg 60%
    06:00 +14°C° 0 mm 2 mps 652 mmHg 58%
    07:00 +16°C° 0 mm 1 mps 653 mmHg 54%
    08:00 +20°C° 0 mm 1 mps 654 mmHg 49%
    09:00 +22°C° 0 mm 1 mps 655 mmHg 45%
    10:00 +23°C° 0 mm 1 mps 655 mmHg 43%
    11:00 +24°C° 0 mm 2 mps 654 mmHg 41%
    12:00 +25°C° 0 mm 2 mps 654 mmHg 39%
    13:00 +25°C° 0 mm 2 mps 654 mmHg 42%
    14:00 +24°C° 0 mm 2 mps 653 mmHg 44%
    15:00 +24°C° 0 mm 2 mps 652 mmHg 47%
    16:00 +21°C° 0 mm 2 mps 652 mmHg 58%
    17:00 +19°C° 0 mm 1 mps 651 mmHg 68%
    18:00 +16°C° 0 mm 1 mps 651 mmHg 79%
    19:00 +16°C° 0 mm 1 mps 651 mmHg 76%
    20:00 +15°C° 0 mm 1 mps 652 mmHg 73%
    21:00 +15°C° 0 mm 1 mps 652 mmHg 70%
    22:00 +15°C° 0 mm 2 mps 652 mmHg 67%
    23:00 +15°C° 0 mm 2 mps 652 mmHg 64%
    Show more